• Join FlightAware (Why Join?)
  • Login
  • US Flag 
05:48AM EDT


 

Airport Tracker/Info


-or-


 

Live Flight TrackerFlight Track Log ✈ UAL4236 ✈ 20-Apr-2013 ✈ KELP - KIAH

Flight Track Log - Related Links

Times and Time Zones

All times are in EDT time to prevent confusion due to time zone crossing. See the UAL4236 flight status page for this flight to view local times or setup timezone preferences in your user account.

Time Position Orientation Groundspeed Altitude Reporting Facility
EDT Latitude Longitude Course Direction KTS MPH feet Rate Location/Type
12:40PM 31.7994 -106.3014 91° East 193 222 6,000  Level Albuquerque Center
12:40PM 31.7983 -106.2764 93° East 222 255 6,800 2,100 Climbing Albuquerque Center
12:41PM 31.7928 -106.2231 97° East 246 283 8,200 1,980 Climbing Albuquerque Center
12:42PM 31.7386 -105.8629 96° East  Level FlightAware Approximate
12:42PM 31.7828 -106.1372 98° East 266 306 10,400  Level Albuquerque Center
12:43PM 31.7243 -105.7363 100° East  Level FlightAware Approximate
12:43PM 31.7706 -106.0358 98° East 309 356 12,000  Level Albuquerque Center
12:44PM 31.7100 -105.6097 96° East  Level FlightAware Approximate
12:44PM 31.7550 -105.8969 97° East 357 411 14,000  Level Albuquerque Center
12:45PM 31.7403 -105.7711 98° East 390 449 15,400 1,380 Climbing Albuquerque Center
12:46PM 31.7253 -105.6386 98° East 408 470 16,900 1,320 Climbing Albuquerque Center
12:47PM 31.7086 -105.5017 98° East 421 484 18,200 1,200 Climbing Albuquerque Center
12:48PM 31.6919 -105.3606 98° East 434 499 19,400 1,260 Climbing Albuquerque Center
12:49PM 31.6753 -105.2153 98° East 444 511 20,800 1,260 Climbing Albuquerque Center
12:50PM 31.6578 -105.0686 98° East 450 518 22,100 1,380 Climbing Albuquerque Center
12:51PM 31.6375 -104.8886 97° East 460 529 23,700 1,380 Climbing Albuquerque Center
12:52PM 31.6183 -104.7367 98° East 466 536 25,000 1,200 Climbing Albuquerque Center
12:53PM 31.6000 -104.5847 98° East 468 539 26,300 1,260 Climbing Albuquerque Center
12:54PM 31.5811 -104.4317 98° East 472 543 27,700 1,320 Climbing Albuquerque Center
12:55PM 31.5628 -104.2800 98° East 471 542 29,100 1,320 Climbing Albuquerque Center
12:56PM 31.5433 -104.1278 98° East 472 543 30,500 1,380 Climbing Albuquerque Center
12:57PM 31.5233 -103.9758 99° East 471 542 32,000 1,500 Climbing Albuquerque Center
12:58PM 31.4983 -103.7944 99° East 470 541 33,700 1,260 Climbing Albuquerque Center
12:59PM 31.4822 -103.6619 98° East 466 536 34,700 600 Climbing Albuquerque Center
01:00PM 31.4625 -103.5106 99° East 468 539 35,000 120 Climbing Albuquerque Center
01:01PM 31.4381 -103.3183 98° East 494 568 35,000  Level Albuquerque Center
01:02PM 31.4164 -103.1489 98° East 519 597 35,000  Level Albuquerque Center
01:03PM 31.3944 -102.9756 98° East 535 616 35,000  Level Albuquerque Center
01:04PM 31.3725 -102.8003 98° East 543 625 35,000  Level Albuquerque Center
01:05PM 31.3497 -102.6272 99° East 541 623 35,000  Level Albuquerque Center
01:06PM 31.3244 -102.4217 98° East 554 638 35,000  Level Albuquerque Center
01:07PM 31.3003 -102.2486 99° East 548 631 35,000  Level Albuquerque Center
01:08PM 31.2775 -102.0761 99° East 542 624 35,000  Level Albuquerque Center
01:09PM 31.2561 -101.9097 99° East 541 623 35,000  Level Albuquerque Center
01:10PM 31.2278 -101.7003 99° East 544 626 35,000  Level Albuquerque Center
01:11PM 31.2186 -101.5578 94° East 548 631 35,000  Level Houston Center
01:12PM 31.2106 -101.3800 93° East 549 632 35,000  Level Houston Center
01:13PM 31.2008 -101.1903 93° East 547 629 35,000  Level Houston Center
01:14PM 31.1914 -101.0114 93° East 550 633 35,000  Level Houston Center
01:15PM 31.1806 -100.8356 94° East 545 627 35,000  Level Houston Center
01:17PM 31.1697 -100.6592 94° East 544 626 35,000  Level Houston Center
01:18PM 31.1586 -100.4836 94° East 541 623 35,000  Level Houston Center
01:19PM 31.1450 -100.2739 94° East 539 620 35,000  Level Houston Center
01:20PM 31.1344 -100.0981 94° East 539 620 35,000  Level Houston Center
01:21PM 31.1228 -99.9239 94° East 538 619 35,000  Level Houston Center
01:22PM 31.1108 -99.7494 95° East 539 620 35,000  Level Houston Center
01:23PM 31.0994 -99.5767 94° East 535 616 35,000  Level Houston Center
01:24PM 31.0864 -99.3997 95° East 544 626 35,000  Level Houston Center
01:25PM 31.0736 -99.2269 95° East 537 618 35,000 -420 Level Houston Center
01:26PM 31.0597 -99.0256 95° East 535 616 34,200 -1,080 Descending Houston Center
01:27PM 31.0464 -98.8567 95° East 522 601 32,800 -1,440 Descending Houston Center
01:28PM 31.0336 -98.6894 95° East 517 595 31,300 -1,440 Descending Houston Center
01:29PM 31.0203 -98.5211 95° East 515 593 29,900 -1,140 Descending Houston Center
01:30PM 31.0078 -98.3542 95° East 514 592 29,000 -480 Descending Houston Center
01:31PM 30.9925 -98.1586 95° East 515 593 29,000  Level Houston Center
01:32PM 30.9789 -97.9900 95° East 517 595 29,000  Level Houston Center
01:33PM 30.9656 -97.8222 95° East 517 595 29,000  Level Houston Center
01:34PM 30.9511 -97.6533 96° East 519 597 29,000  Level Houston Center
01:35PM 30.9278 -97.4886 99° East 513 590 29,000  Level Houston Center
01:36PM 30.8797 -97.3244 109° East 519 597 29,000  Level Houston Center
01:37PM 30.8308 -97.1469 108° East 522 601 29,000  Level Houston Center
01:38PM 30.7858 -96.9892 108° East 516 594 29,000 -540 Level Houston Center
01:39PM 30.7394 -96.8306 109° East 516 594 27,900 -1,500 Descending Houston Center
01:40PM 30.6942 -96.6758 109° East 506 582 25,900 -2,160 Descending Houston Center
01:41PM 30.6486 -96.5228 109° East 500 575 23,500 -2,700 Descending Houston Center
01:42PM 30.6325 -96.4681 109° East 494 568 22,400 -2,940 Descending Houston Center
01:42PM 30.6061 -96.3725 108° East 489 563 20,500 -3,000 Descending Houston Center
01:43PM 30.5628 -96.2358 110° East 453 521 17,500 -2,940 Descending Houston Center
01:44PM 30.4981 -96.1169 122° Southeast 408 470 15,000 -2,280 Descending Houston Center
01:45PM 30.4481 -96.0233 122° Southeast 380 437 13,100 -1,980 Descending Houston Center
01:45PM 30.4311 -95.9928 123° Southeast 386 444 12,600 -1,800 Descending Houston Center
01:46PM 30.3881 -95.9117 122° Southeast 342 394 11,100 -1,500 Descending Houston Center
01:47PM 30.3456 -95.8319 122° Southeast 303 349 10,000 -1,140 Descending Houston Center
01:48PM 30.3333 -95.8194 139° Southeast 309 356 9,700 -1,500 Descending Houston Center
01:48PM 30.2756 -95.7989 163° South 275 316 8,500 -1,260 Descending Houston Center
01:49PM 30.2050 -95.7614 155° Southeast 267 307 7,600 -900 Descending Houston Center
01:50PM 30.1978 -95.7519 132° Southeast 266 306 7,300 -1,800 Descending Houston Center
01:50PM 30.1514 -95.7022 137° Southeast 256 295 5,800 -2,040 Descending Houston Center
01:51PM 30.1342 -95.6831 136° Southeast 262 302 5,200 -1,560 Descending Houston Center
01:51PM 30.0983 -95.6481 140° Southeast 256 295 4,200 -1,380 Descending Houston Center
01:52PM 30.0828 -95.6289 133° Southeast 254 292 3,800 -1,140 Descending Houston Center
01:52PM 30.0475 -95.5939 139° Southeast 248 285 3,100 -900 Descending Houston Center
01:53PM 30.0319 -95.5756 134° Southeast 250 288 2,900 -120 Descending Houston Center
01:53PM 30.0031 -95.5436 136° Southeast 239 275 3,000 180 Climbing Houston Center